When you browse on this site, cookies collect data to enhance your experience and personalize the content and advertising you see.
Visit our Privacy Policy to learn more. By continuing to use the site, you agree to this use of cookies and data.
  • în România
  • Lista ţărilor
  • Pe 7 zile
  • Temperatura apei
  • Hartă satelitară
  • Meteo pe hartă
  • Widget-uri
  • user-avatar
    Intrare

    Meteo pe oră la Azzate

    Astăzi, 21 Iulie, Duminică

    Timp Temperatura Precipitaţii Vânt Presiune Umiditate
    00:00 +24°C° 0 mm 1 m/s 743 mmHg 74%
    01:00 +24°C° 0 mm 1 m/s 743 mmHg 76%
    02:00 +23°C° 0.1 mm 1 m/s 743 mmHg 77%
    03:00 +23°C° 0.1 mm 1 m/s 743 mmHg 77%
    04:00 +23°C° 0.1 mm 1 m/s 742 mmHg 78%
    05:00 +23°C° 0.2 mm 1 m/s 743 mmHg 77%
    06:00 +24°C° 0.2 mm 1 m/s 743 mmHg 76%
    07:00 +25°C° 0 mm 1 m/s 743 mmHg 73%
    08:00 +27°C° 0 mm 1 m/s 743 mmHg 65%
    09:00 +29°C° 0 mm 1 m/s 743 mmHg 58%
    10:00 +31°C° 0 mm 1 m/s 744 mmHg 50%
    11:00 +32°C° 0 mm 1 m/s 744 mmHg 47%
    12:00 +33°C° 0 mm 1 m/s 743 mmHg 44%
    13:00 +34°C° 0 mm 1 m/s 743 mmHg 41%
    14:00 +34°C° 0.1 mm 1 m/s 743 mmHg 42%
    15:00 +35°C° 0.1 mm 2 m/s 743 mmHg 43%
    16:00 +35°C° 0.1 mm 2 m/s 743 mmHg 44%
    17:00 +32°C° 0.1 mm 2 m/s 743 mmHg 50%
    18:00 +31°C° 0.1 mm 2 m/s 743 mmHg 57%
    19:00 +30°C° 0.1 mm 1 m/s 743 mmHg 64%
    20:00 +29°C° 0.1 mm 1 m/s 744 mmHg 68%
    21:00 +27°C° 0.1 mm 1 m/s 744 mmHg 71%
    22:00 +26°C° 0.1 mm 1 m/s 745 mmHg 75%
    23:00 +25°C° 0.2 mm 1 m/s 745 mmHg 76%

    Mâine, 22 Iulie, Luni

    Timp Temperatura Precipitaţii Vânt Presiune Umiditate
    00:00 +24°C° 0.2 mm 1 m/s 745 mmHg 76%
    01:00 +24°C° 0.2 mm 1 m/s 745 mmHg 77%
    02:00 +23°C° 0.1 mm 1 m/s 745 mmHg 76%
    03:00 +23°C° 0.1 mm 1 m/s 745 mmHg 75%
    04:00 +23°C° 0.1 mm 1 m/s 745 mmHg 74%
    05:00 +23°C° 0 mm 1 m/s 745 mmHg 72%
    06:00 +24°C° 0 mm 1 m/s 745 mmHg 70%
    07:00 +25°C° 0 mm 1 m/s 745 mmHg 68%
    08:00 +27°C° 0 mm 1 m/s 745 mmHg 62%
    09:00 +29°C° 0 mm 1 m/s 745 mmHg 56%
    10:00 +29°C° 0 mm 0 m/s 745 mmHg 50%
    11:00 +32°C° 0 mm 1 m/s 745 mmHg 47%
    12:00 +33°C° 0 mm 1 m/s 745 mmHg 45%
    13:00 +35°C° 0 mm 1 m/s 744 mmHg 42%
    14:00 +35°C° 0 mm 2 m/s 744 mmHg 42%
    15:00 +35°C° 0 mm 2 m/s 744 mmHg 43%
    16:00 +35°C° 0 mm 2 m/s 744 mmHg 44%
    17:00 +34°C° 0 mm 2 m/s 744 mmHg 51%
    18:00 +32°C° 0 mm 2 m/s 744 mmHg 57%
    19:00 +30°C° 0 mm 1 m/s 744 mmHg 64%
    20:00 +29°C° 0 mm 1 m/s 744 mmHg 67%
    21:00 +28°C° 0 mm 1 m/s 745 mmHg 69%
    22:00 +25°C° 0 mm 0 m/s 745 mmHg 72%
    23:00 +27°C° 0 mm 1 m/s 745 mmHg 73%

    Poimâine, 23 Iulie, Marţi

    Timp Temperatura Precipitaţii Vânt Presiune Umiditate
    00:00 +26°C° 0 mm 1 m/s 744 mmHg 74%
    01:00 +26°C° 0 mm 1 m/s 744 mmHg 74%
    02:00 +26°C° 0 mm 1 m/s 744 mmHg 74%
    03:00 +25°C° 0 mm 1 m/s 744 mmHg 74%
    04:00 +25°C° 0 mm 1 m/s 744 mmHg 75%
    05:00 +26°C° 0 mm 1 m/s 744 mmHg 73%
    06:00 +26°C° 0 mm 1 m/s 744 mmHg 72%
    07:00 +27°C° 0 mm 1 m/s 743 mmHg 70%
    08:00 +29°C° 0 mm 1 m/s 743 mmHg 64%
    09:00 +31°C° 0 mm 1 m/s 743 mmHg 58%
    10:00 +33°C° 0 mm 1 m/s 744 mmHg 52%
    11:00 +33°C° 0.1 mm 1 m/s 743 mmHg 51%
    12:00 +35°C° 0.1 mm 2 m/s 743 mmHg 49%
    13:00 +35°C° 0.1 mm 2 m/s 743 mmHg 48%
    14:00 +35°C° 0.1 mm 2 m/s 742 mmHg 49%
    15:00 +35°C° 0.1 mm 2 m/s 742 mmHg 50%
    16:00 +35°C° 0.1 mm 2 m/s 742 mmHg 51%
    17:00 +33°C° 0.1 mm 1 m/s 742 mmHg 55%
    18:00 +32°C° 0.1 mm 1 m/s 742 mmHg 59%
    19:00 +31°C° 0.1 mm 1 m/s 742 mmHg 62%
    20:00 +30°C° 0 mm 1 m/s 742 mmHg 65%
    21:00 +29°C° 0 mm 1 m/s 742 mmHg 67%
    22:00 +28°C° 0 mm 1 m/s 742 mmHg 70%
    23:00 +27°C° 0 mm 1 m/s 742 mmHg 72%

    24 Iulie, Miercuri

    Timp Temperatura Precipitaţii Vânt Presiune Umiditate
    00:00 +27°C° 0 mm 1 m/s 742 mmHg 73%
    01:00 +26°C° 0 mm 1 m/s 742 mmHg 75%
    02:00 +26°C° 0 mm 1 m/s 742 mmHg 75%
    03:00 +26°C° 0 mm 1 m/s 742 mmHg 76%
    04:00 +25°C° 0 mm 1 m/s 742 mmHg 77%
    05:00 +26°C° 0 mm 1 m/s 742 mmHg 75%
    06:00 +27°C° 0 mm 1 m/s 742 mmHg 73%
    07:00 +25°C° 0 mm 0 m/s 742 mmHg 71%
    08:00 +29°C° 0 mm 1 m/s 742 mmHg 64%
    09:00 +31°C° 0 mm 1 m/s 742 mmHg 57%
    10:00 +33°C° 0 mm 1 m/s 742 mmHg 50%
    11:00 +33°C° 0 mm 1 m/s 742 mmHg 48%
    12:00 +35°C° 0 mm 2 m/s 742 mmHg 46%
    13:00 +36°C° 0 mm 2 m/s 741 mmHg 44%
    14:00 +36°C° 0 mm 2 m/s 741 mmHg 44%
    15:00 +36°C° 0 mm 2 m/s 741 mmHg 44%
    16:00 +36°C° 0 mm 2 m/s 741 mmHg 44%
    17:00 +35°C° 0 mm 2 m/s 741 mmHg 49%
    18:00 +33°C° 0 mm 1 m/s 740 mmHg 55%
    19:00 +32°C° 0 mm 1 m/s 740 mmHg 60%
    20:00 +30°C° 0 mm 1 m/s 741 mmHg 64%
    21:00 +29°C° 0 mm 1 m/s 741 mmHg 67%
    22:00 +26°C° 0 mm 0 m/s 741 mmHg 70%
    23:00 +28°C° 0 mm 1 m/s 741 mmHg 71%

    25 Iulie, Joi

    Timp Temperatura Precipitaţii Vânt Presiune Umiditate
    00:00 +27°C° 0 mm 1 m/s 741 mmHg 72%
    01:00 +27°C° 0 mm 1 m/s 741 mmHg 73%
    02:00 +26°C° 0 mm 1 m/s 741 mmHg 73%
    03:00 +26°C° 0 mm 1 m/s 741 mmHg 73%
    04:00 +26°C° 0 mm 1 m/s 741 mmHg 74%
    05:00 +26°C° 0 mm 1 m/s 741 mmHg 72%
    06:00 +27°C° 0 mm 1 m/s 741 mmHg 71%
    07:00 +28°C° 0 mm 1 m/s 741 mmHg 69%
    08:00 +29°C° 0 mm 1 m/s 741 mmHg 61%
    09:00 +31°C° 0 mm 1 m/s 741 mmHg 53%
    10:00 +33°C° 0 mm 1 m/s 741 mmHg 46%
    11:00 +34°C° 0 mm 1 m/s 741 mmHg 43%
    12:00 +35°C° 0 mm 1 m/s 741 mmHg 41%
    13:00 +37°C° 0 mm 2 m/s 740 mmHg 39%
    14:00 +37°C° 0 mm 2 m/s 740 mmHg 39%
    15:00 +36°C° 0 mm 2 m/s 740 mmHg 39%
    16:00 +36°C° 0 mm 2 m/s 739 mmHg 40%
    17:00 +35°C° 0 mm 2 m/s 739 mmHg 46%
    18:00 +34°C° 0 mm 2 m/s 739 mmHg 52%
    19:00 +32°C° 0 mm 1 m/s 739 mmHg 58%
    20:00 +30°C° 0 mm 1 m/s 740 mmHg 60%
    21:00 +29°C° 0 mm 1 m/s 740 mmHg 63%
    22:00 +28°C° 0 mm 1 m/s 740 mmHg 66%
    23:00 +28°C° 0 mm 1 m/s 740 mmHg 67%

    26 Iulie, Vineri

    Timp Temperatura Precipitaţii Vânt Presiune Umiditate
    00:00 +27°C° 0 mm 1 m/s 740 mmHg 68%
    01:00 +27°C° 0 mm 1 m/s 740 mmHg 69%
    02:00 +26°C° 0 mm 1 m/s 740 mmHg 70%
    03:00 +26°C° 0 mm 1 m/s 740 mmHg 71%
    04:00 +25°C° 0 mm 1 m/s 740 mmHg 72%
    05:00 +26°C° 0 mm 1 m/s 740 mmHg 70%
    06:00 +27°C° 0 mm 1 m/s 739 mmHg 69%
    07:00 +27°C° 0 mm 1 m/s 739 mmHg 67%
    08:00 +29°C° 0 mm 1 m/s 739 mmHg 61%
    09:00 +31°C° 0 mm 1 m/s 739 mmHg 54%
    10:00 +33°C° 0 mm 1 m/s 739 mmHg 48%
    11:00 +34°C° 0.4 mm 2 m/s 739 mmHg 46%
    12:00 +35°C° 0.4 mm 2 m/s 739 mmHg 44%
    13:00 +36°C° 0.4 mm 2 m/s 739 mmHg 43%
    14:00 +36°C° 0.2 mm 2 m/s 738 mmHg 42%
    15:00 +36°C° 0.2 mm 2 m/s 738 mmHg 41%
    16:00 +36°C° 0.2 mm 2 m/s 738 mmHg 40%
    17:00 +35°C° 0.2 mm 2 m/s 738 mmHg 47%
    18:00 +32°C° 0.2 mm 2 m/s 738 mmHg 53%
    19:00 +31°C° 0.2 mm 1 m/s 738 mmHg 59%
    20:00 +29°C° 1.8 mm 1 m/s 738 mmHg 66%
    21:00 +27°C° 1.8 mm 1 m/s 739 mmHg 72%
    22:00 +26°C° 1.8 mm 2 m/s 739 mmHg 78%
    23:00 +25°C° 2.1 mm 2 m/s 739 mmHg 80%
    Arată mai mult